TimeEDT,TemperatureF,Dew PointF,Humidity,Sea Level PressureIn,VisibilityMPH,Wind Direction,Wind SpeedMPH,Gust SpeedMPH,PrecipitationIn,Events,Conditions,WindDirDegrees,DateUTC
12:29 AM,39.2,33.8,81,29.68,10.0,West,12.7,-,N/A,,Overcast,270,2013-10-24 04:29:00
12:54 AM,39.0,33.1,79,29.69,10.0,West,15.0,23.0,N/A,,Overcast,280,2013-10-24 04:54:00
1:54 AM,37.0,33.1,86,29.69,10.0,WNW,11.5,19.6,N/A,,Mostly Cloudy,300,2013-10-24 05:54:00
2:07 AM,37.4,32.0,81,29.70,10.0,WNW,12.7,18.4,N/A,,Scattered Clouds,290,2013-10-24 06:07:00
2:54 AM,36.0,32.0,86,29.71,10.0,West,8.1,-,N/A,,Scattered Clouds,270,2013-10-24 06:54:00
3:54 AM,35.1,30.9,85,29.72,10.0,West,8.1,-,N/A,,Scattered Clouds,280,2013-10-24 07:54:00
4:32 AM,35.6,30.2,81,29.73,10.0,West,4.6,-,N/A,,Mostly Cloudy,260,2013-10-24 08:32:00
4:39 AM,35.6,30.2,81,29.73,10.0,West,5.8,-,N/A,,Mostly Cloudy,260,2013-10-24 08:39:00
4:54 AM,35.1,30.9,85,29.74,10.0,West,6.9,-,N/A,,Overcast,270,2013-10-24 08:54:00
5:14 AM,33.8,30.2,87,29.74,10.0,West,5.8,-,N/A,,Mostly Cloudy,260,2013-10-24 09:14:00
5:36 AM,33.8,30.2,87,29.75,10.0,West,5.8,-,N/A,,Scattered Clouds,260,2013-10-24 09:36:00
5:54 AM,34.0,30.9,89,29.76,10.0,WSW,4.6,-,N/A,,Scattered Clouds,240,2013-10-24 09:54:00
6:54 AM,33.1,30.0,89,29.78,10.0,SW,5.8,-,N/A,,Partly Cloudy,220,2013-10-24 10:54:00
7:54 AM,35.1,28.0,76,29.79,10.0,West,10.4,-,N/A,,Mostly Cloudy,260,2013-10-24 11:54:00
8:54 AM,37.0,30.0,76,29.80,10.0,SSW,4.6,-,N/A,,Clear,200,2013-10-24 12:54:00
9:54 AM,41.0,28.0,60,29.80,10.0,West,11.5,24.2,N/A,,Clear,260,2013-10-24 13:54:00
10:54 AM,42.1,27.0,55,29.80,10.0,WSW,20.7,28.8,N/A,,Mostly Cloudy,250,2013-10-24 14:54:00
11:54 AM,43.0,27.0,53,29.79,10.0,West,12.7,23.0,N/A,,Overcast,260,2013-10-24 15:54:00
12:54 PM,46.9,25.0,42,29.77,10.0,WSW,19.6,28.8,N/A,,Mostly Cloudy,240,2013-10-24 16:54:00
1:54 PM,45.0,23.0,42,29.77,10.0,West,20.7,26.5,N/A,,Mostly Cloudy,260,2013-10-24 17:54:00
2:54 PM,45.0,23.0,42,29.77,10.0,West,18.4,27.6,N/A,,Overcast,260,2013-10-24 18:54:00
3:54 PM,44.1,23.0,43,29.79,10.0,West,15.0,24.2,N/A,,Mostly Cloudy,270,2013-10-24 19:54:00
4:54 PM,45.0,23.0,42,29.79,10.0,West,17.3,23.0,N/A,,Overcast,270,2013-10-24 20:54:00
5:54 PM,44.1,24.1,45,29.81,10.0,WSW,11.5,-,N/A,,Overcast,250,2013-10-24 21:54:00
6:54 PM,42.1,24.1,49,29.84,10.0,West,10.4,-,N/A,,Mostly Cloudy,260,2013-10-24 22:54:00
7:54 PM,43.0,24.1,47,29.85,10.0,West,10.4,-,N/A,,Overcast,260,2013-10-24 23:54:00
8:54 PM,42.1,24.1,49,29.85,10.0,West,10.4,-,N/A,,Mostly Cloudy,270,2013-10-25 00:54:00
9:54 PM,39.0,30.0,70,29.87,10.0,West,9.2,-,N/A,,Mostly Cloudy,280,2013-10-25 01:54:00
10:54 PM,37.9,30.9,76,29.89,10.0,WNW,4.6,-,N/A,,Mostly Cloudy,290,2013-10-25 02:54:00
11:54 PM,37.9,33.1,83,29.90,10.0,NW,4.6,-,0.00,,Overcast,310,2013-10-25 03:54:00